sat.trackr.live / text

‹ back to catalog

STARLINK-35763

NORAD 67089 · 2025-298Q

PAYLOAD ACTIVE UNKNOWN

§ Identity

Operator
Country
US
Launch date
2025-12-14
Launch site
AFWTR
Launch vehicle
Mass (kg)
RCS (m²)

Purposes: comms

External: N2YO · Heavens-Above · Gunter

§ Orbital elements

Epoch: 2026-05-25T03:19:29.697888Z

Period
96.11 min
Inclination
70.0012°
Eccentricity
0.0003526
Mean motion
14.98337412 rev/d
Perigee alt
569.6 km
Apogee alt
574.5 km
Semi-major
6,950.2 km
B*
2.3486e-4
RAAN
181.9026°
Arg perigee
268.3259°
Mean anomaly
91.7496°
Rev number
2,466

§ Raw data

STARLINK-357631 67089U 25298Q   26145.13853817  .00002711  00000+0  23486-3 0  99962 67089  70.0012 181.9026 0003526 268.3259  91.7496 14.98337412 24666

JSON: /api/v1/satellites/67089 · /tle

For live sub-satellite position, see the globe view (requires WebGL).

§ Visibility from observer

Set your observer location to see the next 7 days of passes ≥ 10°. The values pass through the URL so the page stays shareable.

No JS? Fill the form by hand. The geolocation button needs JavaScript.